CELTEE 1

Last updated on Sun Jun 21 2026 00:03:50 GMT+0000 (Coordinated Universal Time)

1 41850U 16067C 26171.10424451 .00004605 00000+0 21929-3 0 9996 2 41850 98.0669 37.8698 0001126 129.3909 230.7424 15.19706183526323
UTC large
Height (km)
Speed (km/s)
/
Latitude / Longitude
Inclination (degrees)
Orbital Period (minutes)
Azimuth
Elevation
Range (km)
Doppler Factor

Next 0 passes for location: London (51.5072 / 0.1276)

No passes found over London.
CELTEE 1